Kirksville, MO

12:22 AM CDT on August 23, 2017 (GMT -0500)
Kirksville Regional

Weather History for KIRK - August, 2013

Change the Weather History Date:

Thursday, August 8, 2013

  Actual Average Record
Temperature  
Mean Temperature 68 °F 75 °F  
Max Temperature 80 °F 86 °F 110 °F (1934)
Min Temperature 56 °F 65 °F 50 °F (1976)
Degree Days  
Heating Degree Days 0 0  
Month to date heating degree days 0 0  
Since 1 June heating degree days 44 17  
Since 1 July heating degree days 8 1  
Cooling Degree Days 3 10  
Month to date cooling degree days 67 81  
Year to date cooling degree days 599 648  
Since 1 June cooling degree days 531 586  
Growing Degree Days 18 (Base 50)    
Moisture  
Dew Point 63 °F    
Average Humidity 79    
Maximum Humidity 100    
Minimum Humidity 58    
Precipitation  
Precipitation 0.00 in 0.11 in 2.69 in (1970)
Month to date precipitation 0.00 0.88  
Year to date precipitation 29.89 24.47  
Sea Level Pressure  
Sea Level Pressure 30.00 in    
Wind  
Wind Speed 5 mph (NE)    
Max Wind Speed 13 mph    
Max Gust Speed 16 mph    
Visibility 10 miles    
Events      
T = Trace of Precipitation, MM = Missing Value Source: NWS Daily Summary

Daily Weather History Graph

Daily Weather History Graph

Search for Another Location

Airport or City:

Trip Planner

Search our weather history database for the weather conditions in past years. The results will help you decide how hot, cold, wet, or windy it might be!

Date:

Astronomy

Aug. 08, 2013 Rise Set
Actual Time 6:15 AM CDT 8:15 PM CDT
Civil Twilight 5:45 AM CDT 8:45 PM CDT
Nautical Twilight 5:09 AM CDT 9:21 PM CDT
Astronomical Twilight 4:29 AM CDT 10:00 PM CDT
Moon 8:02 AM CDT (8/8) 8:54 PM CDT (8/8)
Length of Visible Light 14h 59m
Length of Day
14h 00m
Waxing Crescent, 3% of the Moon is Illuminated
Aug 8
Waxing Crescent
Aug 14
First Quarter
Aug 20
Full
Aug 28
Last Quarter
Sep 5
New

Hourly Weather History & Observations

Time (CDT) Temp. Dew Point Humidity Pressure Visibility Wind Dir Wind Speed Gust Speed Precip Events Conditions
12:55 AM 64.0 °F 62.1 °F 93% 30.00 in 10.0 mi NNE 5.8 mph - N/A   Clear
1:55 AM 63.0 °F 61.0 °F 93% 29.99 in 10.0 mi NNE 4.6 mph - N/A   Clear
2:55 AM 63.0 °F 61.0 °F 93% 29.99 in 10.0 mi North 5.8 mph - N/A   Clear
3:55 AM 62.1 °F 60.1 °F 93% 29.97 in 10.0 mi NNE 5.8 mph - N/A   Clear
4:55 AM 61.0 °F 59.0 °F 93% 29.97 in 9.0 mi NNE 4.6 mph - N/A   Clear
5:55 AM 57.9 °F 57.0 °F 97% 29.99 in 3.0 mi NNE 3.5 mph - N/A   Clear
6:55 AM 61.0 °F 60.1 °F 97% 29.98 in 7.0 mi NE 5.8 mph - N/A   Clear
7:55 AM 64.9 °F 62.1 °F 90% 30.01 in 10.0 mi NE 4.6 mph - N/A   Clear
8:55 AM 68.0 °F 62.1 °F 81% 30.00 in 10.0 mi NE 4.6 mph - N/A   Clear
9:55 AM 71.1 °F 62.1 °F 73% 30.02 in 10.0 mi ENE 6.9 mph - N/A   Clear
10:55 AM 73.9 °F 64.0 °F 71% 30.02 in 10.0 mi ENE 6.9 mph - N/A   Clear
11:55 AM 75.9 °F 64.9 °F 69% 30.00 in 10.0 mi ENE 5.8 mph - N/A   Clear
12:55 PM 77.0 °F 66.0 °F 69% 29.96 in 10.0 mi NE 9.2 mph - N/A   Clear
1:55 PM 79.0 °F 64.0 °F 60% 29.98 in 10.0 mi ENE 10.4 mph - N/A   Clear
2:55 PM 79.0 °F 63.0 °F 58% 29.99 in 10.0 mi ENE 4.6 mph - N/A   Clear
3:55 PM 78.1 °F 64.9 °F 64% 29.99 in 10.0 mi ENE 4.6 mph - N/A   Clear
4:55 PM 79.0 °F 64.0 °F 60% 29.99 in 10.0 mi NNE 6.9 mph - N/A   Partly Cloudy
5:55 PM 78.1 °F 64.0 °F 62% 30.00 in 10.0 mi North 6.9 mph - N/A   Clear
6:55 PM 75.0 °F 64.0 °F 69% 30.00 in 10.0 mi NNE 5.8 mph - N/A   Clear
7:55 PM 73.0 °F 64.0 °F 73% 29.99 in 10.0 mi North 4.6 mph - N/A   Clear
8:55 PM 71.1 °F 63.0 °F 75% 30.00 in 10.0 mi North 4.6 mph - N/A   Clear
9:55 PM 69.1 °F 63.0 °F 81% 30.01 in 10.0 mi North 3.5 mph - N/A   Clear
10:55 PM 69.1 °F 63.0 °F 81% 30.02 in 10.0 mi Calm Calm - N/A   Clear
11:55 PM 66.0 °F 63.0 °F 90% 30.03 in 10.0 mi Calm Calm - N/A   Clear